Starlink 3297

operational
NORAD ID: 50159 Int'l Des: 2021-125 Owner: SPXS Country: US Constellation: starlink
LEOCIRCULAR

About Starlink 3297

Description loading...

Live Position

Loading 3D Globe...

Upcoming Passes

Altitude History

Altitude vs Time

uPlot chart will show altitude changes over time

Two-Line Element Set

1 50159U 21125D 25353.14745568 .00002524 00000-0 17654-3 0 9998
2 50159 53.2165 260.7004 0001367 87.9247 272.1902 15.08859255224297
Epoch: Dec 19, 2025 • Age: 9 hours

Current Status

Altitude 539.8 km
Velocity 7.60 km/s
Sub-Earth Point 19.98°N, 152.49°E
Launch Date Dec 18, 2021
Age 4 years
Type internet

Technical Details

Classification Payload
Mass 290.00 kg
Dry Mass 270.00 kg
Total Mass 290.00 kg
Length 0.20 m
Diameter 2.80 m
Span 9.00 m
Shape Box + pan
Manufacturer SPXS
Bus Type Starlink
Phase Status In Orbit
Owner/State SPXS/US

Large Constellations

Loading constellations...